Weather History for Avalon, VC

Change the Weather History Date:

Monday, April 14, 2014

  Actual Average (YMML) Record (YMML)
Temperature  
Mean Temperature 58 °F -  
Max Temperature 68 °F 67 °F 89 °F (2004)
Min Temperature 47 °F 49 °F 42 °F (2001)
Degree Days  
Heating Degree Days 8    
Growing Degree Days 8 (Base 50)    
Moisture  
Dew Point 50 °F    
Average Humidity 72    
Maximum Humidity 94    
Minimum Humidity 41    
Precipitation  
Precipitation 0.00 in - - ()
Sea Level Pressure  
Sea Level Pressure 30.20 in    
Wind  
Wind Speed 9 mph ()    
Max Wind Speed 16 mph    
Max Gust Speed -    
Visibility 6.2 miles    
Events      
Averages and records for this station are not official NWS values.
T = Trace of Precipitation, MM = Missing Value Source: Averaged Metar Reports

Daily Weather History Graph

Daily Weather History Graph

Search for Another Location

Airport:

Trip Planner

Search our weather history database for the weather conditions in past years. The results will help you decide how hot, cold, wet, or windy it might be!

Date:

Astronomy

Apr. 14, 2014 Rise Set
Actual Time 6:47 AM AEST 5:56 PM AEST
Civil Twilight 6:20 AM AEST 6:23 PM AEST
Nautical Twilight 5:50 AM AEST 6:54 PM AEST
Astronomical Twilight 5:19 AM AEST 7:24 PM AEST
Moon 5:15 PM AEST (4/14) 5:25 AM AEST (4/14)
Length of Visible Light 12h 02m
Length of Day
11h 09m
Waxing Gibbous, 98% of the Moon is Illuminated
Apr 14
Waxing Gibbous
Apr 15
Full
Apr 22
Last Quarter
Apr 29
New
May 7
First Quarter

Hourly Weather History & Observations

Time (AEST) Temp. Dew Point Humidity Pressure Visibility Wind Dir Wind Speed Gust Speed Precip Events Conditions
12:00 AM 53 °F 50 °F 84% 30.20 in - SSE 8.1 mph - -  
12:00 AM 53.6 °F 50.0 °F 88% 30.18 in 6.2 mi SSE 8.1 mph - N/A   Unknown
12:30 AM 53.6 °F 50.0 °F 88% 30.18 in 6.2 mi South 8.1 mph - N/A   Unknown
1:00 AM 53.6 °F 50.0 °F 88% 30.18 in 6.2 mi South 9.2 mph - N/A   Unknown
1:30 AM 53.6 °F 50.0 °F 88% 30.18 in 6.2 mi SSE 8.1 mph - N/A   Unknown
2:00 AM 53.6 °F 50.0 °F 88% 30.18 in 6.2 mi SSE 8.1 mph - N/A   Unknown
2:30 AM 53.6 °F 50.0 °F 88% 30.18 in 6.2 mi South 8.1 mph - N/A   Unknown
3:00 AM 52 °F 49 °F 87% 30.20 in - SSE 8.1 mph - -  
3:00 AM 51.8 °F 50.0 °F 94% 30.18 in 6.2 mi SSE 8.1 mph - N/A   Unknown
3:30 AM 55.4 °F 50.0 °F 82% 30.18 in 6.2 mi SE 9.2 mph - N/A   Unknown
4:00 AM 55.4 °F 51.8 °F 88% 30.18 in 6.2 mi SE 10.4 mph - N/A   Unknown
4:30 AM 57.2 °F 51.8 °F 82% 30.18 in 6.2 mi ESE 11.5 mph - N/A   Unknown
5:00 AM 57.2 °F 50.0 °F 77% 30.18 in 6.2 mi East 11.5 mph - N/A   Unknown
5:30 AM 55.4 °F 50.0 °F 82% 30.18 in 6.2 mi ESE 9.2 mph - N/A   Unknown
6:00 AM 54 °F 50 °F 82% 30.22 in - ESE 8.1 mph - -  
6:00 AM 55.4 °F 50.0 °F 82% 30.21 in 6.2 mi ESE 8.1 mph - N/A   Scattered Clouds
6:30 AM 53.6 °F 48.2 °F 82% 30.21 in 6.2 mi SSE 4.6 mph - N/A   Scattered Clouds
7:00 AM 48.2 °F 44.6 °F 87% 30.21 in 6.2 mi NNW 2.3 mph - N/A   Unknown
7:30 AM 50.0 °F 48.2 °F 94% 30.21 in 6.2 mi SSW 3.5 mph - N/A   Scattered Clouds
8:00 AM 59.0 °F 55.4 °F 88% 30.21 in 6.2 mi SSE 6.9 mph - N/A   Unknown
8:30 AM 60.8 °F 53.6 °F 77% 30.24 in 6.2 mi SE 12.7 mph - N/A   Unknown
9:00 AM 62 °F 51 °F 58% 30.25 in - ESE 15.0 mph - -  
9:00 AM 62.6 °F 51.8 °F 68% 30.24 in 6.2 mi ESE 15.0 mph - N/A   Unknown
9:30 AM 62.6 °F 51.8 °F 68% 30.24 in 6.2 mi ESE 15.0 mph - N/A   Unknown
10:00 AM 64.4 °F 50.0 °F 59% 30.24 in 6.2 mi ESE 16.1 mph - N/A   Unknown
10:30 AM 64.4 °F 50.0 °F 59% 30.24 in 6.2 mi ESE 13.8 mph - N/A   Unknown
11:00 AM 64.4 °F 50.0 °F 59% 30.24 in 6.2 mi ESE 13.8 mph - N/A   Unknown
11:30 AM 64.4 °F 48.2 °F 56% 30.24 in 6.2 mi ESE 13.8 mph - N/A   Unknown
12:00 PM 65 °F 49 °F 47% 30.24 in - ESE 12.7 mph - -  
12:00 PM 66.2 °F 50.0 °F 56% 30.21 in 6.2 mi ESE 12.7 mph - N/A   Unknown
12:30 PM 66.2 °F 48.2 °F 52% 30.21 in 6.2 mi ESE 11.5 mph - N/A   Unknown
1:00 PM 66.2 °F 48.2 °F 52% 30.21 in 6.2 mi SE 10.4 mph - N/A   Unknown
1:30 PM 66.2 °F 50.0 °F 56% 30.18 in 6.2 mi East 11.5 mph - N/A   Unknown
2:00 PM 68.0 °F 48.2 °F 49% 30.18 in 6.2 mi SE 11.5 mph - N/A   Unknown
2:30 PM 66.2 °F 46.4 °F 49% 30.18 in 6.2 mi SSE 12.7 mph - N/A   Scattered Clouds
3:00 PM 67 °F 49 °F 41% 30.20 in - South 13.8 mph - -  
3:00 PM 66.2 °F 48.2 °F 52% 30.18 in 6.2 mi South 13.8 mph - N/A   Scattered Clouds
3:30 PM 66.2 °F 48.2 °F 52% 30.18 in 6.2 mi South 12.7 mph - N/A   Unknown
4:00 PM 66.2 °F 46.4 °F 49% 30.18 in 6.2 mi South 15.0 mph - N/A   Unknown
4:30 PM 66.2 °F 44.6 °F 46% 30.18 in 6.2 mi South 13.8 mph - N/A   Unknown
5:00 PM 64.4 °F 44.6 °F 49% 30.18 in 6.2 mi South 13.8 mph - N/A   Unknown
5:30 PM 62.6 °F 46.4 °F 55% 30.18 in 6.2 mi South 13.8 mph - N/A   Unknown
6:00 PM 61 °F 49 °F 54% 30.21 in - South 11.5 mph - -  
6:00 PM 60.8 °F 48.2 °F 63% 30.18 in 6.2 mi South 11.5 mph - N/A   Unknown
6:30 PM 59.0 °F 48.2 °F 67% 30.21 in 6.2 mi South 11.5 mph - N/A   Unknown
7:00 PM 59.0 °F 50.0 °F 72% 30.21 in 6.2 mi South 10.4 mph - N/A   Unknown
7:30 PM 59.0 °F 51.8 °F 77% 30.21 in 6.2 mi South 10.4 mph - N/A   Unknown
8:00 PM 59.0 °F 53.6 °F 82% 30.21 in 6.2 mi South 10.4 mph - N/A   Unknown
8:30 PM 59.0 °F 53.6 °F 82% 30.21 in 6.2 mi South 10.4 mph - N/A   Unknown
9:00 PM 58 °F 54 °F 80% 30.24 in - South 9.2 mph - -  
9:00 PM 57.2 °F 53.6 °F 88% 30.21 in 6.2 mi South 9.2 mph - N/A   Scattered Clouds
9:30 PM 57.2 °F 53.6 °F 88% 30.21 in 6.2 mi South 8.1 mph - N/A   Mostly Cloudy
10:00 PM 57.2 °F 53.6 °F 88% 30.21 in 6.2 mi South 9.2 mph - N/A   Scattered Clouds
10:30 PM 55.4 °F 53.6 °F 94% 30.24 in 6.2 mi South 6.9 mph - N/A   Scattered Clouds
11:00 PM 55.4 °F 53.6 °F 94% 30.21 in 6.2 mi SSE 5.8 mph - N/A   Overcast
11:30 PM 57.2 °F 55.4 °F 94% 30.21 in 6.2 mi SSE 5.8 mph - N/A   Overcast